Waarnemingen

Advertentie
Mijn weer
Benavente, Spanje (8056): temperatuur & dauwpunt: 21.02.2020 03:00:00 - 27.02.2020 03:00:00 (CET)Benavente, Spanje (8056): windsnelheid & windstoten: 21.02.2020 03:00:00 - 27.02.2020 03:00:00 (CET)Benavente, Spanje (8056): windrichting: 21.02.2020 03:00:00 - 27.02.2020 03:00:00 (CET)Benavente, Spanje (8056): luchtdruk: 21.02.2020 03:00:00 - 27.02.2020 03:00:00 (CET)Benavente, Spanje (8056): zicht: 21.02.2020 03:00:00 - 27.02.2020 03:00:00 (CET)Benavente, Spanje (8056): Zonneschijnduur: 21.02.2020 03:00:00 - 27.02.2020 03:00:00 (CET)Benavente, Spanje (8056): neerslag: 21.02.2020 03:00:00 - 27.02.2020 03:00:00 (CET)
Datum & Tijd tt [°C] td [°C] ff [km/u] ff [kn] fx [km/u] fx [kn] dd ppp [hPa] vv [km] sd [min] rr [mm]
27.02.2020 03:00:00 - - - - - - - - - - -
27.02.2020 02:00:00 5,8 1,9 9 5 20 11 WZW 1022,7 20 0 0,0
27.02.2020 01:00:00 5,6 1,1 3 2 20 11 WZW 1023,4 20 0 -
27.02.2020 00:00:00 6,0 1,1 5 3 16 9 WZW 1023,9 20 0 0,0
26.02.2020 23:00:00 6,7 1,5 8 4 21 12 W 1023,9 20 0 0,0
26.02.2020 22:00:00 6,4 1,3 8 4 24 13 W 1023,9 20 0 0,0
26.02.2020 21:00:00 7,7 1,3 11 6 25 13 W 1023,7 20 0 0,0
26.02.2020 20:00:00 8,6 0,2 9 5 25 13 WNW 1023,1 20 0 0,0
26.02.2020 19:00:00 9,9 0,2 11 6 31 17 WNW 1022,2 20 15 -
26.02.2020 18:00:00 11,6 0,0 16 9 35 19 NW 1021,6 20 21 0,0
26.02.2020 17:00:00 14,2 -1,4 13 7 30 16 NW 1020,3 20 59 0,0
26.02.2020 16:00:00 14,4 -2,2 10 5 27 15 WNW 1020,1 20 60 0,0
26.02.2020 15:00:00 14,1 -4,2 10 6 27 14 WNW 1020,5 20 60 0,0
26.02.2020 14:00:00 13,4 -1,4 12 6 26 14 NW 1021,8 20 60 0,0
26.02.2020 13:00:00 12,3 -0,3 12 7 29 16 NNW 1022,8 20 60 -
26.02.2020 12:00:00 11,2 -0,7 12 6 35 19 NW 1023,5 20 60 0,0
26.02.2020 11:00:00 8,6 -0,3 6 3 16 9 ZW 1024,4 20 60 0,0
26.02.2020 10:00:00 5,4 -1,0 5 3 12 7 WZW 1025,3 20 60 0,0
26.02.2020 09:00:00 2,3 -2,0 5 3 14 8 ZZW 1026,1 20 8 0,0
26.02.2020 08:00:00 2,8 -2,0 6 4 14 7 WZW 1025,4 20 0 0,0
26.02.2020 07:00:00 3,0 -1,7 6 3 14 8 WZW 1025,1 20 0 -
26.02.2020 06:00:00 3,7 -1,4 8 4 14 8 WNW 1024,8 20 0 0,0
26.02.2020 05:00:00 1,8 -1,7 5 3 11 6 ZZO 1025,1 20 0 0,0
26.02.2020 04:00:00 3,8 -1,4 5 3 21 11 W 1024,4 20 0 0,0
26.02.2020 03:00:00 4,5 -1,2 9 5 22 12 WNW 1024,4 20 0 0,0
26.02.2020 02:00:00 4,4 -0,7 10 5 22 12 WNW 1024,5 20 0 0,0
26.02.2020 01:00:00 4,7 0,4 9 5 18 10 WNW 1024,3 20 0 -
26.02.2020 00:00:00 5,5 0,6 11 6 20 11 NW 1024,0 20 0 0,0
25.02.2020 23:00:00 6,4 0,9 11 6 20 11 NW 1023,3 20 0 0,0
25.02.2020 22:00:00 8,2 -0,3 8 4 16 8 W 1022,5 20 0 0,0
25.02.2020 21:00:00 9,3 0,6 4 2 20 11 ZZW 1021,8 20 0 0,0
25.02.2020 20:00:00 11,4 2,5 10 5 21 12 W 1020,7 20 0 0,0
25.02.2020 19:00:00 13,1 4,8 8 4 29 16 W 1019,0 20 27 -
25.02.2020 18:00:00 15,3 2,1 14 8 38 21 W 1018,2 20 60 0,0
25.02.2020 17:00:00 16,3 0,0 16 9 32 18 NW 1017,9 20 55 0,0
25.02.2020 16:00:00 16,7 4,1 14 8 30 16 WNW 1017,8 20 44 0,0
25.02.2020 15:00:00 16,3 5,8 9 5 36 19 W 1018,2 20 25 0,0
25.02.2020 14:00:00 15,4 5,3 13 7 27 15 NW 1019,2 20 8 0,0
25.02.2020 13:00:00 14,7 4,1 8 4 20 11 W 1019,8 20 19 -
25.02.2020 12:00:00 13,5 3,0 11 6 22 12 ZW 1020,7 20 48 0,0
25.02.2020 11:00:00 10,8 0,2 8 4 14 8 W 1022,0 20 0 0,0
25.02.2020 10:00:00 9,5 -1,0 5 3 9 5 W 1022,2 20 0 0,0
25.02.2020 09:00:00 8,2 -1,2 4 2 10 5 W 1022,3 14 0 0,0
25.02.2020 08:00:00 7,5 -0,3 4 2 8 5 ZZW 1022,2 20 0 0,0
25.02.2020 07:00:00 7,0 0,9 2 1 13 7 NNO 1022,6 20 0 -
25.02.2020 06:00:00 6,4 0,9 4 2 11 6 ONO 1022,4 20 0 0,0
25.02.2020 05:00:00 7,9 -1,4 5 3 16 8 W 1021,6 20 0 0,0
25.02.2020 04:00:00 7,6 -1,0 8 4 17 9 WNW 1022,6 20 0 0,0
25.02.2020 03:00:00 8,2 -0,5 4 2 13 7 WNW 1022,8 20 0 0,0
25.02.2020 02:00:00 7,9 1,3 5 3 9 5 ZZW 1022,9 20 0 0,0
25.02.2020 01:00:00 10,5 -3,9 6 4 13 7 WZW 1022,9 20 0 -
25.02.2020 00:00:00 11,5 -3,9 7 4 19 11 WNW 1022,9 20 0 0,0
24.02.2020 23:00:00 12,4 0,4 9 5 23 13 W 1023,0 20 0 0,0
24.02.2020 22:00:00 13,1 1,1 11 6 21 12 WNW 1023,0 20 0 0,0
24.02.2020 21:00:00 14,4 -1,2 9 5 18 10 W 1022,6 20 0 0,0
24.02.2020 20:00:00 15,9 -1,7 8 4 15 8 WZW 1022,1 20 0 0,0
24.02.2020 19:00:00 17,9 -1,0 6 3 20 11 ZZW 1021,4 20 34 -
24.02.2020 18:00:00 20,5 -2,5 12 7 22 12 ZW 1020,6 20 60 0,0
24.02.2020 17:00:00 21,8 -6,0 9 5 24 13 ZZW 1020,6 20 56 0,0
24.02.2020 16:00:00 20,4 4,5 6 4 17 9 ZZO 1021,8 20 60 0,0
24.02.2020 15:00:00 19,0 3,6 8 4 20 11 Z 1023,6 20 60 0,0
24.02.2020 14:00:00 17,2 3,8 9 5 17 9 ZZW 1025,2 20 60 0,0
24.02.2020 13:00:00 15,2 3,4 5 3 15 8 ZZW 1027,1 20 60 -
24.02.2020 12:00:00 12,7 2,3 4 2 9 5 ZW 1028,5 20 60 0,0
24.02.2020 11:00:00 9,0 1,7 4 2 9 5 WNW 1030,4 20 60 0,0
24.02.2020 10:00:00 5,7 0,0 1 1 7 4 ZZW 1031,8 20 60 0,0
24.02.2020 09:00:00 1,1 -1,7 2 1 5 3 NW 1033,4 20 4 0,0
24.02.2020 08:00:00 1,0 -2,0 1 1 6 3 NNW 1033,2 20 0 0,0
24.02.2020 07:00:00 2,3 -1,7 4 2 16 8 N 1032,8 20 0 -
24.02.2020 06:00:00 2,6 -1,4 3 2 11 6 N 1033,1 20 0 0,0
24.02.2020 05:00:00 3,4 -1,0 4 2 16 9 NO 1032,7 20 0 0,0
24.02.2020 04:00:00 4,6 0,0 6 3 19 10 N 1032,8 20 0 0,0
24.02.2020 03:00:00 3,3 0,4 4 2 8 5 NNO 1033,9 13 0 0,0
24.02.2020 02:00:00 5,1 2,3 5 3 10 5 NNW 1033,5 20 0 0,0
24.02.2020 01:00:00 4,3 1,1 3 2 5 3 N 1034,1 18 0 -
24.02.2020 00:00:00 5,4 1,7 2 1 16 9 WNW 1033,9 20 0 0,0
23.02.2020 23:00:00 6,4 2,3 3 1 6 3 N 1033,2 20 0 0,0
23.02.2020 22:00:00 7,5 2,1 1 1 5 3 N 1032,8 20 0 0,0
23.02.2020 21:00:00 9,3 2,1 2 1 6 4 ZZW 1032,2 20 0 0,0
23.02.2020 20:00:00 10,6 2,7 3 1 4 2 ZW 1031,9 20 0 0,0
23.02.2020 19:00:00 15,7 2,9 2 1 16 9 ZZW 1030,2 20 32 -
23.02.2020 18:00:00 18,3 3,0 8 4 18 10 Z 1029,5 20 60 0,0
23.02.2020 17:00:00 19,6 2,5 5 3 12 7 Z 1029,7 20 58 0,0
23.02.2020 16:00:00 18,9 1,9 5 3 13 7 ZW 1030,2 20 60 0,0
23.02.2020 15:00:00 17,6 1,1 3 2 10 5 ZZO 1031,2 20 60 0,0
23.02.2020 14:00:00 15,7 2,1 5 3 11 6 OZO 1032,7 20 60 0,0
23.02.2020 13:00:00 13,9 3,0 5 3 13 7 NNO 1034,3 20 60 -
23.02.2020 12:00:00 11,5 3,2 4 2 15 8 NO 1035,3 20 60 0,0
23.02.2020 11:00:00 8,2 2,5 7 4 12 7 NO 1036,7 20 60 0,0
23.02.2020 10:00:00 4,7 1,1 2 1 16 9 NO 1037,6 20 60 0,0
23.02.2020 09:00:00 0,6 -1,2 1 1 16 8 O 1038,6 20 3 0,0
23.02.2020 08:00:00 0,4 -1,4 2 1 5 3 N 1038,2 20 0 0,0
23.02.2020 07:00:00 0,7 -1,2 3 2 18 10 N 1037,9 20 0 -
23.02.2020 06:00:00 0,8 -1,7 3 1 13 7 NW 1037,8 20 0 0,0
23.02.2020 05:00:00 2,3 0,0 4 2 9 5 NW 1037,2 20 0 0,0
23.02.2020 04:00:00 2,4 -0,3 2 1 17 9 Z 1037,2 20 0 0,0
23.02.2020 03:00:00 3,7 0,6 4 2 16 9 NNW 1037,2 20 0 0,0
23.02.2020 02:00:00 4,1 1,3 6 3 21 11 N 1037,4 20 0 0,0
23.02.2020 01:00:00 3,4 0,2 5 3 17 9 N 1037,5 20 0 -
23.02.2020 00:00:00 6,0 2,1 4 2 15 8 NNW 1036,4 20 0 0,0
22.02.2020 23:00:00 5,5 1,1 2 1 16 9 NW 1036,5 20 0 0,0
22.02.2020 22:00:00 6,5 1,9 1 1 5 3 NW 1035,7 20 0 0,0
22.02.2020 21:00:00 8,0 2,3 0 0 17 9 N 1035,0 20 0 0,0
22.02.2020 20:00:00 9,6 2,7 4 2 7 4 N 1034,2 20 0 0,0
22.02.2020 19:00:00 14,2 3,6 3 1 11 6 ONO 1032,2 20 31 -
22.02.2020 18:00:00 18,0 1,1 6 3 17 9 Z 1030,4 20 59 0,0
22.02.2020 17:00:00 18,4 0,9 8 4 16 9 ZZW 1030,5 20 60 0,0
22.02.2020 16:00:00 18,5 1,1 6 3 14 8 ZW 1030,7 20 60 0,0
22.02.2020 15:00:00 17,4 1,7 5 3 14 8 Z 1031,2 20 60 0,0
22.02.2020 14:00:00 15,9 3,4 4 2 11 6 Z 1032,4 20 60 0,0
22.02.2020 13:00:00 13,3 3,0 3 2 18 10 O 1034,1 20 60 -
22.02.2020 12:00:00 10,8 3,8 9 5 15 8 NNO 1035,0 20 60 0,0
22.02.2020 11:00:00 7,9 1,5 2 1 14 8 WZW 1035,5 20 60 0,0
22.02.2020 10:00:00 4,7 0,9 3 1 17 9 ONO 1036,3 20 60 0,0
22.02.2020 09:00:00 -0,2 -1,7 4 2 14 8 NNW 1037,6 20 1 0,0
22.02.2020 08:00:00 -0,5 -2,2 4 2 17 9 NNO 1036,9 20 0 0,0
22.02.2020 07:00:00 -0,1 -2,0 3 1 17 9 NNO 1035,9 16 0 -
22.02.2020 06:00:00 -0,1 -1,7 4 2 14 8 N 1035,5 15 0 0,0
22.02.2020 05:00:00 0,7 -1,4 3 2 19 11 ONO 1035,0 17 0 0,0
22.02.2020 04:00:00 1,1 -1,2 2 1 5 3 NNO 1034,9 12 0 0,0
22.02.2020 03:00:00 1,7 -0,7 3 1 14 8 NNW 1034,9 18 0 0,0
22.02.2020 02:00:00 2,7 0,2 1 1 9 5 ONO 1034,8 16 0 0,0
22.02.2020 01:00:00 4,1 0,4 3 2 8 4 NNO 1034,1 20 0 -
22.02.2020 00:00:00 3,3 0,0 0 0 5 3 N 1034,3 20 0 0,0
21.02.2020 23:00:00 4,5 1,1 3 1 6 3 N 1033,6 20 0 0,0
21.02.2020 22:00:00 4,7 0,4 1 1 3 1 N 1032,7 20 0 0,0
21.02.2020 21:00:00 6,7 1,5 1 1 3 2 OZO 1031,6 20 0 0,0
21.02.2020 20:00:00 8,5 1,9 2 1 4 2 W 1030,6 20 0 0,0
21.02.2020 19:00:00 13,4 2,1 2 1 9 5 ZZW 1028,5 20 30 -
21.02.2020 18:00:00 17,2 0,4 2 1 6 3 WZW 1027,0 20 60 0,0
21.02.2020 17:00:00 16,6 1,1 4 2 9 5 N 1027,3 20 58 0,0
21.02.2020 16:00:00 16,0 2,5 6 4 15 8 N 1027,7 20 60 0,0
21.02.2020 15:00:00 14,7 2,9 5 3 17 9 N 1028,6 20 60 0,0
21.02.2020 14:00:00 13,0 3,0 6 3 14 7 NO 1029,7 20 60 0,0
21.02.2020 13:00:00 11,4 2,7 5 3 15 8 ONO 1030,9 20 60 -
21.02.2020 12:00:00 9,9 3,0 5 3 17 9 ONO 1031,8 20 60 0,0
21.02.2020 11:00:00 7,5 2,1 7 4 21 12 N 1032,8 20 60 0,0
21.02.2020 10:00:00 4,5 1,3 7 4 19 10 N 1033,6 20 59 0,0
21.02.2020 09:00:00 0,2 -1,4 4 2 7 4 NO 1034,5 14 0 0,0
21.02.2020 08:00:00 -0,7 -2,2 3 1 5 3 N 1034,2 13 0 0,0
21.02.2020 07:00:00 -0,3 -2,0 2 1 13 7 NNO 1033,5 16 0 -
21.02.2020 06:00:00 0,9 -1,4 5 3 11 6 NNO 1032,6 13 0 0,0
21.02.2020 05:00:00 2,5 0,4 6 3 21 11 N 1032,1 20 0 0,0
21.02.2020 04:00:00 2,4 0,2 7 4 19 10 N 1032,4 20 0 0,0
21.02.2020 03:00:00 2,2 0,0 8 4 19 11 N 1032,4 20 0 0,0

tt = temperatuur
td = dauwpunt
ff = windsnelheid
fx = windstoten
dd = windrichting
ppp = luchtdruk
vv = zicht
sd = Zonneschijnduur
rr = neerslag

Weerstations in de omgeving